DW4611 Weather Reports


Display with metric or nautical units.
time (UTC)temp
F
wind
direction
speed
MPH
gust
MPH
rain 1hr
in
rain 24hr
in
rain mn
in
humidity
%
barometer
mb
20181115074531 47 0.0 0.0 0.00 0.01 0.01 85 1025.7
20181115073058 46 0.0 0.0 0.00 0.01 0.01 85 1025.7
20181115071551 46 0.0 0.0 0.00 0.01 0.01 86 1025.6
20181115070027 46 0.0 0.0 0.00 0.01 0.01 87 1025.5
20181115064506 46 0.0 0.0 0.00 0.01 0.01 88 1025.5
20181115061702 45 0.0 0.0 0.00 0.01 0.01 92 1025.4
20181115060122 44 0.0 0.0 0.00 0.01 0.01 94 1025.3
20181115054632 44 0.0 0.0 0.00 0.01 0.01 95 1025.2
20181115053115 43 0.0 0.0 0.00 0.01 0.01 96 1025.3
20181115051603 43 0.0 0.0 0.00 0.01 0.01 96 1025.4
20181115050124 43 0.0 0.0 0.00 0.01 0.01 96 1025.5
20181115044557 43 0.0 0.0 0.00 0.01 0.01 96 1025.5
20181115043114 43 0.0 0.0 0.00 0.01 0.01 95 1025.5
20181115041533 44 0.0 0.0 0.00 0.01 0.01 95 1025.5
20181115040034 44 0.0 0.0 0.00 0.01 0.01 96 1025.4
20181115034526 44 0.0 0.0 0.00 0.01 0.01 95 1025.3
20181115033013 44 0.0 0.0 0.00 0.01 0.01 95 1025.4
20181115031508 45 0.0 0.0 0.00 0.01 0.01 95 1025.4
20181115030142 45 0.0 0.0 0.00 0.01 0.01 95 1025.4
20181115024607 45 0.0 0.0 0.00 0.01 0.01 95 1025.5
20181115023140 45 0.0 0.0 0.00 0.01 0.01 94 1025.6
20181115021614 45 0.0 0.0 0.00 0.01 0.01 94 1025.5
20181115020127 46 0.0 0.0 0.00 0.01 0.01 93 1025.6
20181115014611 46 0.0 0.0 0.00 0.01 0.01 93 1025.9
20181115013038 47 0.0 0.0 0.00 0.01 0.01 93 1025.8
20181115011542 47 0.0 0.0 0.00 0.01 0.01 92 1026.0
20181115010033 47 0.0 0.0 0.01 0.01 0.01 93 1025.9
20181115004537 47 0.0 0.0 0.01 0.01 0.01 94 1025.8
20181115003018 46 0.0 0.0 0.01 0.01 0.01 95 1025.8
20181115001513 46 0.0 0.0 0.01 0.01 0.01 96 1025.9
20181115000008 46 0.0 0.0 0.00 0.00 0.00 96 1026.0
20181114234506 46 0.0 0.0 0.00 0.00 0.00 95 1026.1
20181114233208 47 0.0 0.0 0.00 0.00 0.00 95 1026.4
20181114231645 47 0.0 0.0 0.00 0.00 0.00 95 1026.6
20181114230132 47 0.0 0.0 0.00 0.00 0.00 95 1026.7
20181114224732 47 0.0 0.0 0.00 0.00 0.00 95 1026.7
20181114223100 47 0.0 0.0 0.00 0.00 0.00 94 1026.6
20181114221550 48 0.0 0.0 0.00 0.00 0.00 94 1026.5
20181114220049 48 0.0 0.0 0.00 0.00 0.00 94 1026.4
20181114214611 48 0.0 0.0 0.00 0.00 0.00 93 1026.3
20181114213107 48 0.0 0.0 0.00 0.00 0.00 92 1026.3
20181114211551 49 0.0 0.0 0.00 0.00 0.00 92 1026.1
20181114210044 49 0.0 0.0 0.00 0.00 0.00 92 1026.2
20181114204522 49 0.0 0.0 0.00 0.00 0.00 92 1026.1
20181114203009 50 0.0 0.0 0.00 0.00 0.00 92 1026.1
20181114201502 50 0.0 0.0 0.00 0.00 0.00 93 1026.1
20181114200250 49 0.0 0.0 0.00 0.00 0.00 93 1026.2
20181114194706 49 0.0 0.0 0.00 0.00 0.00 93 1026.0
20181114193121 50 0.0 0.0 0.00 0.00 0.00 92 1026.1
20181114191626 50 0.0 0.0 0.00 0.00 0.00 92 1026.0
20181114190135 51 0.0 0.0 0.00 0.00 0.00 92 1025.9
20181114184706 51 0.0 0.0 0.00 0.00 0.00 93 1025.8
20181114183208 51 0.0 0.0 0.00 0.00 0.00 94 1025.7
20181114181647 51 0.0 0.0 0.00 0.00 0.00 94 1025.6
20181114180127 51 0.0 0.0 0.00 0.00 0.00 94 1025.6
20181114174624 51 0.0 0.0 0.00 0.00 0.00 94 1025.7
20181114173142 50 0.0 0.0 0.00 0.00 0.00 92 1025.5
20181114171645 51 0.0 0.0 0.00 0.00 0.00 93 1025.5
20181114170119 51 0.0 0.0 0.00 0.00 0.00 92 1025.5
20181114164536 52 0.0 0.0 0.00 0.00 0.00 91 1025.4
20181114163024 52 0.0 0.0 0.00 0.00 0.00 91 1025.5
20181114161604 53 0.0 0.0 0.00 0.00 0.00 89 1025.5
20181114160034 54 0.0 0.0 0.00 0.00 0.00 88 1025.5
20181114154511 55 0.0 0.0 0.00 0.00 0.00 87 1025.5
20181114153007 55 0.0 0.0 0.00 0.00 0.00 87 1025.5
20181114151528 56 152 0.0 0.0 0.00 0.00 0.00 86 1025.6
20181114150003 57 152 0.0 0.0 0.00 0.00 0.00 85 1025.7
20181114144510 57 152 1.0 4.0 0.00 0.00 0.00 85 1025.6
20181114143007 58 153 0.0 1.0 0.00 0.00 0.00 84 1025.7
20181114141643 58 153 0.0 4.0 0.00 0.00 0.00 83 1025.7
20181114140251 58 147 2.0 7.0 0.00 0.00 0.00 82 1025.7
20181114134708 59 180 0.0 6.0 0.00 0.00 0.00 80 1025.8
20181114133209 60 185 0.0 3.0 0.00 0.00 0.00 78 1025.8
20181114131834 62 192 3.0 7.0 0.00 0.00 0.00 75 1026.0
20181114130200 62 132 4.0 7.0 0.00 0.00 0.00 73 1026.2
20181114124649 62 186 2.0 7.0 0.00 0.00 0.00 74 1026.4
20181114123148 62 153 4.0 9.0 0.00 0.00 0.00 73 1026.6
20181114121645 62 171 2.0 6.0 0.00 0.00 0.00 72 1026.8
20181114120122 62 177 1.0 5.0 0.00 0.00 0.00 70 1027.1
20181114114628 62 188 2.0 4.0 0.00 0.00 0.00 68 1027.3
20181114113148 62 161 0.0 1.0 0.00 0.00 0.00 68 1027.5
20181114111641 62 188 0.0 5.0 0.00 0.00 0.00 66 1027.7
20181114110118 61 207 0.0 1.0 0.00 0.00 0.00 65 1027.8
20181114104629 60 227 0.0 0.0 0.00 0.00 0.00 66 1028.0
20181114103132 58 227 0.0 1.0 0.00 0.00 0.00 68 1028.2
20181114101558 57 291 1.0 6.0 0.00 0.00 0.00 69 1028.3
20181114100122 56 280 2.0 7.0 0.00 0.00 0.00 71 1028.3
20181114094600 56 297 0.0 5.0 0.00 0.00 0.00 73 1028.5
20181114093048 55 284 0.0 6.0 0.00 0.00 0.00 74 1028.5
20181114091553 54 294 3.0 7.0 0.00 0.00 0.00 76 1028.5
20181114090030 54 285 1.0 6.0 0.00 0.00 0.00 77 1028.6
20181114084541 53 279 0.0 5.0 0.00 0.00 0.00 77 1028.4
20181114083022 53 288 0.0 0.0 0.00 0.00 0.00 80 1028.4
20181114081515 51 355 0.0 0.0 0.00 0.00 0.00 83 1028.4
20181114080008 50 0.0 0.0 0.00 0.00 0.00 85 1028.4